Tracking 35331 objects as of 14-Sep-2026
HD Live streaming from Space Station
objects crossing your sky now

OPS 5259


OPS 5259 is no longer on orbit


NORAD ID: 3297
Int'l Code: 1968-052B
Launch date: June 20, 1968
Source: United States (US)
Launch site: AIR FORCE WESTERN TEST RANGE (AFWTR)
Decay date: 1970-01-11
Your satellite tracking list
Your tracking list is empty




NASA's NSSDC Master Catalog

Two Line Element Set (TLE):
1 03297U 68052  B 70010.49773553  .04653223 +00000-0 +00000-0 0  9998
2 03297 085.1254 278.1602 0000010 081.8395 278.2851 16.34601626088036
Source of the keplerian elements: AFSPC